Terminal Aerodrome Forecast
Issued by NWS

Current Version | Previous Version | Graphics & Text | Print | Product List | Glossary On
Versions: 1 2 3 4 5 6 7 8 9 10 11 12 13 14 15 16 17 18 19 20 21
000
FTUS41 KPBZ 251901 AAA
TAFHLG
TAF AMD
KHLG 251901Z 2519/2618 28011KT P6SM VCTS BKN035CB
     FM252300 26003KT P6SM SCT250
     FM260700 26003KT 3SM BR SCT250
     FM261000 28003KT 2SM BR SCT003
     FM261300 30005KT P6SM SKC=

USA.gov is the U.S. government's official web portal to all federal, state and local government web resources and services.